Wind_Speed
13 13 13 13 13 13 13 15 16 17 18 19 20 21 22 22 23 23 24 24 25 25 26 27 27 28 28 27 28 28 28 28 29 30 31 32 32 33 34 36 38 40 42
15 16 16 16 16 16 16 17 19 20 21 22 23 24 24 25 25 26 26 27 27 28 29 29 30 30 30 30 30 29 29 29 29 30 32 33 34 34 34 35 37 39 41
17 18 18 19 19 19 19 21 22 23 24 25 26 26 27 27 28 28 29 29 30 30 30 31 32 32 32 32 32 31 31 31 31 31 32 34 35 36 36 36 36 38 40
19 19 20 21 21 22 23 24 25 26 27 28 29 29 30 30 31 31 31 31 31 32 33 33 34 33 34 34 33 33 33 33 33 33 34 35 36 37 38 37 37 38 39
20 21 22 23 23 24 25 27 28 29 29 31 32 32 33 33 33 33 34 34 34 35 36 36 35 35 36 35 35 35 35 35 35 35 35 36 37 38 38 38 38 38 39
21 23 24 25 26 27 28 29 30 31 32 33 34 35 35 35 36 36 36 36 37 37 38 38 38 38 38 37 37 37 37 37 37 37 37 37 37 39 39 38 38 38 38
25 26 27 28 29 30 31 32 33 34 35 36 36 37 37 38 39 39 39 39 39 39 40 40 40 39 39 39 39 39 39 39 39 39 38 38 39 39 39 38 38 38 38
28 28 29 31 32 34 34 35 36 37 38 38 39 40 41 40 42 43 43 42 42 42 42 42 42 41 42 42 41 41 41 41 41 40 39 39 39 40 39 39 39 38 38
31 31 32 34 35 37 38 39 40 41 41 42 43 44 44 44 45 46 47 46 45 45 45 44 44 44 44 44 43 42 42 43 43 41 40 39 40 40 40 39 39 39 38
34 35 35 37 38 40 41 43 44 44 45 46 47 48 49 48 48 49 49 49 48 48 47 47 47 47 46 47 46 44 43 44 44 42 41 40 40 40 40 40 39 39 38
36 37 38 40 41 43 45 46 47 49 50 50 51 52 52 52 52 52 52 53 52 52 51 50 50 50 49 49 48 47 45 45 44 43 41 41 40 40 40 40 39 39 38
39 41 42 43 45 46 48 49 50 52 53 53 54 54 55 55 56 56 56 56 56 56 54 53 53 53 52 51 50 49 48 46 44 42 41 40 40 40 41 40 39 39 38
41 43 44 45 47 48 50 51 53 54 55 56 57 58 58 58 59 59 59 59 60 60 58 57 57 56 55 53 52 51 49 47 45 42 41 40 41 41 41 40 40 39 39
43 45 46 47 49 51 53 54 56 57 59 60 61 62 62 62 62 63 63 63 63 63 62 61 60 59 57 55 53 51 49 47 45 43 41 41 41 40 40 39 39 39 39
46 47 49 50 52 54 55 57 59 61 63 64 65 66 66 66 66 66 66 66 66 66 65 64 61 60 58 55 53 51 50 47 46 43 42 41 40 40 40 40 39 39 37
48 50 52 54 55 57 59 61 62 64 66 67 69 69 69 70 69 69 69 68 67 67 66 64 61 58 56 54 52 51 49 48 47 45 42 41 41 40 39 39 38 37 36
52 54 55 57 59 61 62 63 64 65 67 68 70 71 72 72 72 71 70 69 68 67 65 62 59 57 54 52 51 50 48 47 46 45 43 41 40 39 38 37 36 35 35
55 57 59 60 62 63 64 66 67 67 67 67 69 70 71 72 72 71 70 69 67 65 62 59 56 54 52 51 49 47 46 45 45 43 41 39 37 37 36 35 35 35 35
58 60 61 62 63 64 65 66 66 67 67 67 67 67 67 67 66 65 64 62 61 59 57 54 52 50 49 48 47 45 43 42 42 41 39 38 36 35 35 34 34 33 33
60 61 62 62 63 63 63 64 64 64 63 62 62 61 60 59 57 55 54 54 52 50 48 46 46 45 45 43 42 41 41 40 39 38 37 36 35 35 34 34 33 33 33
60 60 60 60 60 60 60 59 59 58 58 57 55 54 53 51 48 46 44 43 42 39 38 38 37 38 39 39 38 37 36 35 36 35 34 33 33 33 33 33 32 32 32
57 57 57 57 56 56 56 55 55 54 53 51 49 47 45 43 40 37 36 34 32 31 29 29 30 30 31 31 30 31 31 32 32 32 31 32 32 32 32 32 32 31 31
54 54 54 54 54 53 52 52 51 50 47 45 43 40 37 35 32 29 26 24 23 22 21 22 24 25 25 25 26 27 28 29 29 29 30 30 30 31 31 31 31 30 30
51 51 51 50 50 49 48 47 47 45 43 40 37 33 30 28 24 20 19 18 18 18 18 19 20 21 22 22 23 24 25 26 27 28 28 29 29 29 29 30 29 29 29
48 48 47 47 47 46 45 44 41 39 36 33 29 26 23 20 16 14 14 15 15 15 15 16 17 18 19 20 20 21 22 23 25 26 26 27 27 27 28 28 29 29 29
45 45 45 45 44 43 40 37 34 31 29 25 21 18 14 11 10 10 10 10 11 12 13 14 15 16 18 19 20 21 22 23 24 24 24 25 25 25 26 26 27 28 28
Wind_Direction
258 260 264 268 273 279 285 289 292 295 296 298 298 298 298 298 300 301 302 302 304 306 307 307 306 305 302 300 298 297 294 292 291 289 287 284 280 275 271 267 264 260 257
260 262 265 268 272 277 282 285 288 291 293 295 297 297 298 298 299 300 302 302 304 305 306 306 306 305 302 299 298 296 295 293 292 290 288 286 283 279 275 271 267 263 259
260 263 266 269 273 277 281 284 287 289 292 294 295 296 297 298 299 299 301 302 303 304 304 305 305 304 302 300 298 296 295 295 293 291 288 287 284 281 277 274 271 266 262
264 267 270 273 276 279 282 285 287 290 291 293 294 295 296 298 298 298 299 301 302 302 302 303 303 302 302 301 298 296 295 295 294 292 289 287 285 281 278 276 273 269 265
270 272 275 277 280 282 284 286 288 290 291 292 293 294 296 297 297 297 299 299 300 301 301 302 301 301 301 300 298 297 296 295 295 293 291 288 285 282 279 276 274 271 268
275 277 279 281 282 284 286 288 289 290 291 291 293 293 295 296 296 297 298 298 299 299 299 300 300 299 298 298 297 296 296 295 295 294 292 290 286 283 280 277 274 271 269
280 281 283 284 286 286 287 289 290 290 290 291 292 292 293 294 294 296 296 296 297 298 298 298 298 298 297 297 297 296 295 294 294 294 293 290 287 284 281 277 274 271 268
284 285 286 287 288 288 288 289 289 288 290 291 291 291 291 291 293 293 294 294 295 296 296 296 296 296 296 296 296 295 294 293 293 293 292 289 286 283 280 277 274 270 267
285 286 287 287 287 287 287 288 288 288 289 289 290 291 291 290 291 291 292 293 293 293 294 294 294 294 295 295 295 295 293 292 291 292 291 287 284 281 278 276 273 271 267
284 285 286 287 287 286 286 286 287 287 288 288 289 290 290 290 289 290 290 291 291 291 292 292 293 293 293 293 293 293 293 291 291 291 289 286 283 279 277 275 273 270 268
284 285 285 285 285 285 285 285 286 286 286 287 288 289 289 289 289 288 289 289 289 289 290 291 291 292 292 292 292 292 291 290 290 289 288 286 282 278 276 274 273 271 269
284 284 284 284 284 284 284 285 285 285 286 286 286 287 287 288 287 287 287 287 288 288 288 289 289 290 290 290 290 289 289 289 287 287 286 284 281 278 276 275 273 271 268
285 285 285 285 285 285 285 285 285 286 286 286 286 286 286 286 286 285 285 285 285 286 286 287 287 287 287 287 288 287 287 286 285 285 284 282 279 278 277 275 273 271 269
287 287 287 287 287 287 287 287 287 287 287 286 286 286 286 285 285 284 284 284 284 284 284 283 284 284 284 284 284 284 284 283 282 282 281 279 278 277 276 275 273 271 269
289 289 289 289 289 288 288 288 288 287 287 286 286 285 285 284 283 283 282 282 282 282 281 281 281 281 281 281 280 280 279 279 279 279 278 277 276 275 274 274 273 271 268
291 291 291 290 290 289 289 288 288 288 287 287 286 285 284 284 283 282 281 281 280 280 279 280 279 279 278 277 277 276 275 275 277 276 275 274 274 274 273 272 272 270 267
293 292 292 291 291 290 290 289 288 287 287 286 286 285 285 284 283 282 281 280 279 279 278 278 277 275 274 273 273 272 272 272 273 272 272 273 272 271 270 269 270 268 266
295 294 294 293 292 292 291 290 289 288 287 286 286 286 285 284 283 282 280 279 278 277 276 275 273 271 270 270 269 270 270 268 269 270 270 270 270 269 267 267 267 267 266
297 297 296 295 295 294 293 293 292 291 290 289 288 287 286 285 284 282 280 279 277 275 273 271 270 268 267 267 267 268 267 265 266 267 267 267 268 267 267 266 266 267 266
299 299 298 297 297 296 296 295 295 295 294 293 292 291 289 288 286 284 281 279 278 275 271 268 266 264 264 265 265 265 264 263 263 264 264 264 265 265 265 264 264 266 266
301 301 300 300 300 300 299 299 299 298 297 296 295 294 293 291 288 284 282 280 277 273 268 264 263 262 262 262 261 259 259 260 260 260 261 263 263 262 262 263 264 265 265
303 303 303 303 303 303 303 302 302 301 300 300 299 297 295 294 292 288 284 279 275 271 266 261 258 258 259 257 256 255 256 259 259 258 260 261 261 261 261 261 263 263 263
305 305 305 305 305 305 305 305 304 304 302 301 301 299 296 295 293 289 284 278 273 268 262 258 256 255 257 255 254 255 254 257 259 259 260 260 260 260 260 261 261 262 262
307 307 307 307 307 307 307 307 306 305 304 303 302 300 297 295 290 286 278 271 266 264 258 254 251 253 253 253 255 256 257 259 261 261 260 260 261 261 261 260 260 260 260
309 309 310 310 310 310 310 309 308 308 308 307 304 302 298 292 288 284 278 272 266 262 254 250 248 251 253 257 259 260 262 264 264 262 262 262 262 262 261 259 259 259 259
312 312 312 312 312 312 313 312 312 312 312 311 310 309 303 295 292 288 279 272 267 261 255 253 253 254 257 261 262 265 266 266 266 264 262 262 262 263 262 260 259 258 257
Height
5850 5850 5850 5850 5850 5849 5848 5847 5846 5845 5844 5843 5842 5840 5839 5837 5835 5833 5831 5829 5826 5824 5822 5819 5817 5814 5812 5810 5808 5806 5804 5802 5800 5798 5796 5795 5794 5794 5794 5794 5794 5795 5797
5846 5846 5846 5846 5845 5844 5843 5842 5841 5840 5839 5837 5836 5834 5833 5831 5828 5826 5824 5822 5820 5817 5815 5812 5809 5807 5804 5802 5799 5797 5795 5794 5792 5790 5787 5785 5784 5783 5783 5783 5783 5784 5785
5842 5842 5841 5840 5839 5838 5837 5836 5835 5833 5832 5831 5829 5828 5826 5824 5821 5819 5817 5815 5812 5810 5807 5804 5801 5799 5796 5793 5791 5788 5786 5784 5783 5781 5778 5776 5774 5772 5772 5772 5772 5772 5773
5837 5836 5836 5835 5833 5832 5831 5829 5828 5826 5825 5823 5822 5820 5818 5816 5814 5811 5809 5807 5804 5801 5798 5796 5793 5790 5787 5784 5781 5779 5777 5774 5772 5771 5768 5766 5764 5761 5761 5761 5761 5760 5761
5831 5830 5829 5828 5827 5825 5823 5822 5820 5818 5817 5815 5813 5811 5809 5807 5805 5803 5801 5798 5796 5793 5790 5787 5784 5781 5778 5775 5772 5769 5766 5764 5761 5759 5757 5755 5753 5750 5749 5749 5749 5749 5749
5825 5824 5822 5821 5819 5817 5815 5813 5812 5810 5808 5806 5804 5802 5800 5798 5796 5794 5791 5789 5786 5783 5780 5777 5774 5771 5768 5765 5762 5759 5756 5753 5750 5748 5746 5744 5741 5739 5738 5737 5737 5737 5737
5818 5816 5814 5813 5811 5809 5807 5805 5803 5801 5799 5797 5795 5793 5791 5788 5786 5783 5781 5778 5776 5773 5770 5766 5763 5760 5757 5754 5751 5748 5745 5742 5739 5737 5734 5732 5729 5727 5726 5725 5725 5725 5725
5810 5808 5806 5804 5802 5800 5798 5796 5794 5791 5789 5787 5785 5782 5780 5778 5775 5772 5769 5766 5764 5762 5758 5755 5752 5749 5745 5742 5739 5736 5733 5730 5727 5725 5723 5720 5717 5715 5713 5713 5712 5713 5713
5801 5799 5797 5795 5793 5791 5788 5786 5783 5780 5778 5776 5773 5771 5768 5766 5763 5760 5756 5754 5752 5749 5746 5743 5740 5737 5733 5729 5727 5724 5721 5717 5714 5712 5710 5707 5705 5702 5701 5700 5700 5700 5701
5793 5790 5788 5786 5783 5781 5778 5775 5772 5769 5766 5764 5761 5758 5755 5753 5750 5746 5743 5740 5738 5736 5732 5729 5726 5723 5720 5716 5713 5711 5708 5704 5701 5699 5697 5694 5692 5690 5688 5688 5687 5687 5688
5783 5780 5778 5775 5772 5769 5766 5763 5760 5757 5754 5750 5748 5745 5742 5739 5736 5732 5728 5725 5723 5720 5717 5715 5711 5708 5705 5701 5699 5697 5694 5691 5688 5685 5683 5681 5679 5677 5675 5675 5675 5675 5676
5772 5769 5766 5763 5760 5757 5754 5750 5747 5743 5740 5736 5733 5730 5727 5723 5720 5716 5713 5709 5706 5703 5701 5699 5696 5692 5689 5686 5684 5682 5679 5676 5674 5672 5670 5668 5665 5664 5662 5662 5662 5662 5663
5760 5757 5754 5750 5747 5743 5740 5736 5732 5728 5724 5720 5717 5714 5711 5707 5703 5699 5696 5692 5688 5685 5684 5682 5679 5676 5673 5670 5668 5666 5663 5661 5660 5658 5657 5655 5652 5651 5650 5649 5649 5649 5649
5748 5744 5741 5737 5733 5729 5724 5720 5716 5711 5707 5703 5699 5695 5692 5689 5685 5681 5677 5673 5670 5667 5665 5663 5661 5658 5656 5654 5652 5650 5648 5646 5645 5644 5643 5641 5639 5638 5637 5636 5636 5636 5636
5734 5730 5726 5722 5718 5713 5708 5703 5698 5694 5688 5684 5679 5675 5671 5668 5665 5660 5656 5653 5650 5647 5644 5643 5641 5640 5638 5636 5635 5633 5632 5631 5630 5630 5629 5628 5626 5625 5624 5623 5623 5623 5624
5721 5716 5711 5707 5702 5696 5691 5686 5680 5674 5669 5662 5656 5652 5648 5645 5641 5638 5634 5631 5628 5624 5622 5622 5621 5620 5619 5618 5617 5616 5616 5615 5615 5615 5614 5614 5613 5612 5611 5610 5610 5611 5611
5706 5701 5695 5689 5684 5678 5672 5667 5662 5656 5648 5641 5634 5628 5623 5620 5616 5613 5610 5607 5605 5602 5600 5601 5600 5600 5600 5600 5600 5599 5600 5599 5599 5600 5600 5600 5599 5599 5598 5598 5598 5599 5599
5689 5683 5677 5671 5664 5658 5651 5645 5638 5633 5628 5622 5614 5606 5600 5595 5591 5587 5584 5582 5581 5580 5578 5579 5580 5580 5581 5581 5582 5583 5583 5584 5585 5585 5586 5586 5586 5586 5586 5586 5587 5587 5587
5671 5664 5658 5651 5644 5637 5630 5622 5615 5609 5603 5597 5591 5585 5577 5571 5566 5562 5559 5557 5557 5557 5557 5558 5560 5561 5562 5564 5565 5567 5568 5569 5570 5571 5572 5573 5573 5573 5574 5575 5575 5575 5576
5652 5645 5638 5630 5623 5615 5608 5601 5593 5586 5579 5573 5567 5561 5555 5549 5545 5541 5538 5536 5535 5536 5538 5539 5541 5543 5545 5547 5549 5551 5553 5555 5556 5558 5559 5560 5561 5562 5563 5563 5564 5564 5565
5633 5625 5618 5610 5603 5595 5588 5580 5573 5566 5559 5553 5547 5540 5534 5529 5526 5523 5521 5519 5518 5519 5521 5523 5525 5528 5530 5532 5535 5537 5539 5542 5543 5545 5547 5548 5549 5550 5551 5552 5553 5554 5554
5615 5607 5600 5592 5585 5577 5570 5562 5555 5548 5541 5535 5529 5523 5518 5513 5510 5507 5506 5505 5505 5506 5508 5510 5513 5516 5518 5521 5523 5526 5528 5530 5532 5534 5535 5537 5538 5539 5540 5541 5542 5543 5544
5598 5591 5584 5576 5569 5562 5554 5547 5539 5532 5526 5520 5515 5510 5506 5502 5498 5496 5495 5494 5495 5497 5499 5501 5504 5507 5509 5511 5514 5516 5519 5521 5522 5523 5525 5526 5527 5528 5530 5531 5532 5533 5534
5584 5577 5570 5562 5555 5547 5540 5533 5526 5519 5513 5507 5502 5498 5495 5492 5489 5488 5487 5488 5489 5490 5492 5495 5497 5500 5502 5504 5506 5508 5510 5512 5513 5514 5515 5516 5517 5518 5519 5521 5522 5523 5524
5571 5564 5557 5549 5542 5535 5528 5521 5514 5508 5502 5497 5493 5489 5486 5484 5483 5483 5483 5483 5485 5486 5488 5489 5492 5494 5496 5498 5499 5500 5502 5503 5504 5505 5506 5507 5508 5509 5510 5511 5512 5513 5514
5560 5552 5545 5538 5530 5523 5516 5510 5504 5499 5494 5489 5486 5483 5481 5480 5480 5480 5480 5481 5482 5483 5484 5486 5487 5489 5491 5492 5493 5494 5495 5496 5496 5497 5498 5498 5499 5500 5501 5501 5502 5503 5505